Regional Weather Roundup
Issued by NWS

Home | Current Version | Previous Version | Graphics & Text | Print | Product List | Glossary On
Versions: 1 2 3 4 5 6 7 8 9 10 11 12 13 14 15 16 17 18 19 20 21 22 23 24 25 26 27 28 29 30 31 32 33 34 35 36 37 38 39 40 41 42 43 44 45 46 47 48 49 50
000
ASUS43 KDTX 021301
RWRMI
MICHIGAN HOURLY REGIONAL WEATHER ROUNDUP
NATIONAL WEATHER SERVICE DETROIT/PONTIAC MI
900 AM EDT THU JUL 02 2015

NOTE: "FAIR" INDICATES FEW OR NO CLOUDS BELOW 12,000 FEET WITH NO
SIGNIFICANT WEATHER AND/OR OBSTRUCTION TO VISIBILITY.

MIZ047>049-052>055-059>063-066>070-074>076-081>083-021400-
SOUTHEAST LOWER MICHIGAN

CITY           SKY/WX    TMP DP  RH WIND       PRES   REMARKS
ADRIAN         PTSUNNY   61  58  90 E9        30.00R
ALMA           CLOUDY    59  53  81 NE5       30.03R
ANN ARBOR      PTSUNNY   61  56  83 E9        30.00R
BAD AXE        SUNNY     60  55  83 NE7       30.02R
CARO           CLOUDY    60  54  80 N5        30.02R
DETROIT CITY   PTSUNNY   62  53  72 NE6       30.01R
DETROIT        PTSUNNY   64  54  69 N12       30.00R
FLINT          PTSUNNY   64  54  69 NE6       30.02R
GROSSE ILE     MOSUNNY   64  55  72 NE10      29.98S
HILLSDALE      MOSUNNY   61  61  99 E6        29.99S FOG
HOWELL         PTSUNNY   60  58  92 NE7       30.01R

CITY           SKY/WX    TMP DP  RH WIND       PRES   REMARKS
JACKSON          N/A     58  57  97 E7        30.01R
LAMBERTVILLE   CLOUDY    64  58  81 NE7       29.99R
LANSING        CLOUDY    61  56  83 NE9       30.02R
LAPEER         FAIR      60  53  76 CALM      30.02R
MASON          CLOUDY    58  56  95 NE6       30.01R
MONROE         SUNNY     63  57  79 NE9       29.99R
MT. CLEMENS    PTSUNNY   60  55  82 N7        29.99R
PONTIAC        PTSUNNY   60  54  80 NE7       30.01R
PORT HOPE        N/A     59  54  83 N8        30.01R
PORT HURON     PTSUNNY   61  55  82 CALM      30.01R
TRI CITIES     CLOUDY    64  54  69 NE9       30.03R
MIDLAND        CLOUDY    59  52  77 N5        30.02S
TROY           CLOUDY    61  55  81 NE6       30.03R
SAGINAW HB     CLOUDY    61  54  77 E7        30.02R
$$
MIZ043>046-050>051-056>058-064>065-071>073-077>080-021400-
SOUTHWEST LOWER MICHIGAN

CITY           SKY/WX    TMP DP  RH WIND       PRES   REMARKS
BATTLE CREEK   CLOUDY    59  56  89 E3        30.01R
BENTON HARBOR  SUNNY     60  55  83 E7        30.00R
BIG RAPIDS     SUNNY     56  47  71 NE3       30.03R
COLDWATER      CLOUDY    58  57  96 E7        29.99S FOG
FREMONT        FAIR      58  49  74 E8        30.03R
HOLLAND        PTSUNNY   57  53  86 E9        30.02R
GRAND RAPIDS   MOSUNNY   58  55  90 NE7       30.02R
IONIA          CLOUDY    58  56  92 NE6       30.02R
KALAMAZOO      FOG       57  55  93 NE6       30.01R VSB 1
LUDINGTON      SUNNY     56  52  86 NE7       30.04R
MARSHALL       CLOUDY    56  56  97 E5        30.00R FOG
MOUNT PLEASANT SUNNY     59  51  74 N6        30.02R
MUSKEGON       MOSUNNY   59  51  75 NE7       30.03R
SOUTH HAVEN    SUNNY     58  54  89 E7        30.00R
$$
MIZ016>042-021400-
NORTHERN LOWER MICHIGAN

CITY           SKY/WX    TMP DP  RH WIND       PRES   REMARKS
ALPENA         SUNNY     59  50  72 N7        30.05R
BEAVER ISLAND  SUNNY     58  47  67 CALM      30.06S
BELLAIRE       SUNNY     55  47  76 CALM      30.04F
CADILLAC       SUNNY     56  48  75 N5        30.04R
CHARLEVOIX     SUNNY     57  50  77 CALM      30.08R HAZE
FRANKFORT      SUNNY     60  46  59 E3        30.05S
GAYLORD        SUNNY     59  46  62 N3        30.05F
GRAYLING       SUNNY     53  48  83 CALM      30.05S
HARBOR SPRINGS SUNNY     56  47  73 CALM      30.06R
HOUGHTON LAKE  SUNNY     55  48  77 NE6       30.04S
MANISTEE       SUNNY     54  48  82 E3        30.05R
OSCODA         SUNNY     60  50  69 N8        30.02S
PELLSTON       SUNNY     58  49  72 VRB3      30.06R
ROGERS CITY    SUNNY     59  52  77 CALM      30.06R
TRAVERSE CITY  SUNNY     57  50  77 VRB3      30.03F
$$
MIZ007>008-015-021400-
EASTERN UPPER MICHIGAN

CITY           SKY/WX    TMP DP  RH WIND       PRES   REMARKS
KINROSS        SUNNY     55  48  76 NW6       30.06S
MACKINAC ISLAN SUNNY     54  46  74 NW3       30.06R
NEWBERRY       PTSUNNY   57  46  65 CALM      30.06R
S. S. MARIE    SUNNY     56  45  66 CALM      30.06R
MUNISING         N/A     56  47  71 S3        30.05S
$$
MIZ004>006-011>014-085-021400-
CENTRAL UPPER MICHIGAN

CITY           SKY/WX    TMP DP  RH WIND       PRES   REMARKS
MANISTIQUE     CLOUDY    54  46  73 CALM      30.07R
ESCANABA       SUNNY     55  45  67 NW3       30.07S
MENOMINEE      SUNNY     57  46  67 NW5       30.08R
SAWYER-GWINN   SUNNY     55  46  71 SW6       30.08R
$$
MIZ001>003-009>011-084-021400-
WESTERN UPPER MICHIGAN

CITY           SKY/WX    TMP DP  RH WIND       PRES   REMARKS
IRON MOUNTAIN  MOSUNNY   54  47  77 W5        30.08R
HOUGHTON       CLOUDY    59  47  64 SW5       30.04R
COPPER HARBOR    N/A     58  49  72 SW9       30.02S
IRONWOOD       SUNNY     59  50  72 SW6       30.05R
$$

ABBREVIATIONS USED IN REMARKS
   TC - TEMPERATURE IN CELSIUS
  WCI - WIND CHILL INDEX
   HX - HEAT INDEX
  VSB - VISIBILITY




USA.gov is the U.S. government's official web portal to all federal, state and local government web resources and services.